Torna al catalogo

KONGJIAN HUANGJING JIANCE

AttivoScienzaSSO
NORAD 67752·PAYLOAD·🇨🇳 China
Questo nome del satellite non è ancora stato confermato da fonti ufficiali.

Lanciato Feb 12, 2026 da South China Sea Launch Area

Loading…

Prossimi Passaggi (prossime 24 ore)

TLE

AggiornatoSource: Space-Track

Epoca: Sep 14, 2026, 07:06 UTC

1 67752U 26027G   26257.29603672  .00004687  00000-0  25988-3 0  9991
2 67752  97.5175  23.3686 0010796 305.6458  54.3768 15.14218531 32385

Traccia KONGJIAN HUANGJING JIANCE in tempo reale con AllMySat

Download on the App Store